Regional Weather Roundup
Issued by NWS

Home | Current Version | Previous Version | Text Only | Print | Product List | Glossary On
Versions: 1 2 3 4 5 6 7 8 9 10 11 12 13 14 15 16 17 18 19 20 21 22 23 24 25 26 27 28 29 30 31 32 33 34 35 36 37 38 39 40 41 42 43 44 45 46 47 48 49 50
073
ASUS45 KPSR 302310
RWRAZ

ARIZONA HOURLY REGIONAL WEATHER ROUNDUP
NATIONAL WEATHER SERVICE PHOENIX AZ
400 PM MST THU MAR 30 2017

NOTE: FAIR INDICATES FEW OR NO CLOUDS BELOW 12,000 FEET WITH NO
SIGNIFICANT WEATHER AND/OR OBSTRUCTIONS TO VISIBILITY.

AZZ001>003-036-310000-
NORTHWEST ARIZONA

CITY           SKY/WX    TMP DP  RH WIND       PRES   REMARKS
BULLHEAD CITY  MOSUNNY   88  34  14 SW22G32   29.43F
KINGMAN        PTSUNNY   70   2   7 S25G41    29.56F
$$

AZZ004>008-015-016-018-310000-
NORTH CENTRAL ARIZONA

CITY           SKY/WX    TMP DP  RH WIND       PRES   REMARKS
GRAND CANYON   LGT RAIN  54  28  36 SW28G51   29.69F
WILLIAMS       PTSUNNY   55  21  26 S22G35    29.74F
PRESCOTT       SUNNY     65  21  18 SW29G46   29.70F
FLAGSTAFF      SUNNY     55  22  27 S30G44    29.76F
PAYSON         SUNNY     66  19  16 S18G28    29.82F
PAGE           PTSUNNY   74  24  15 S15G29    29.46F
$$

AZZ009>014-017-310000-
NORTHEAST ARIZONA

CITY           SKY/WX    TMP DP  RH WIND       PRES   REMARKS
WINSLOW        MOSUNNY   72  20  14 SW24G39   29.69F
SAINT JOHNS    MOSUNNY   69  17  13 SW29G41   29.75F
WINDOW ROCK    MOSUNNY   65  16  15 SW28G38   29.75F
SHOW LOW       SUNNY     63  16  16 SW31G40   29.80F
$$

AZZ023-310000-
GREATER PHOENIX AREA

CITY           SKY/WX    TMP DP  RH WIND       PRES   REMARKS
PHOENIX        MOSUNNY   89  22   8 SW16      29.61F
BUCKEYE        SUNNY     86  28  12 S21G28    29.60F
GLENDALE       MOSUNNY   90  21   8 S21G28    29.62F
LUKE AFB       SUNNY     88  25  10 SW26G33   29.58F
DEER VALLEY    SUNNY     86  22   9 SW17G29   29.62F
SCOTTSDALE     SUNNY     87  20   8 SW12G24   29.65F
MESA-FALCON    MOSUNNY  N/A N/A N/A MISG      29.62F
MESA-GATEWAY   MOSUNNY   88  21   8 SW14G22   29.66F
$$

AZZ027-028-310000-
SOUTHWEST MARICOPA COUNTY AND PINAL COUNTY

CITY           SKY/WX    TMP DP  RH WIND       PRES   REMARKS
CASA GRANDE    SUNNY     88  20   8 SW25      29.65F
GILA BEND      SUNNY     89  15   6 SW28G35   29.61F
$$

AZZ503-504-507>509-310000-
SOUTHEAST ARIZONA

CITY           SKY/WX    TMP DP  RH WIND       PRES   REMARKS
TUCSON         SUNNY     85  13   7 SW16G29   29.78F
DAVIS-MONTHAN  SUNNY     85  13   7 SW14G24   29.76F
RYAN FIELD     SUNNY     86  14   7 SW18G26   29.77F
NOGALES        SUNNY     80  10   7 SW22G28   29.88F
SIERRA VISTA   SUNNY     76  10   8 SW22G28   29.90F
DOUGLAS        SUNNY     80  10   7 W18G26    29.86F
SAFFORD        SUNNY     81  22  11 W8        29.73F
$$

AZZ020-021-025-026-031-310000-
SOUTHWEST ARIZONA

CITY           SKY/WX    TMP DP  RH WIND       PRES   REMARKS
YUMA           MOSUNNY   91  26   9 S20       29.61F
$$

CAZ031-033-041-043-047-048-061-310000-
SOUTHERN CALIFORNIA

CITY           SKY/WX    TMP DP  RH WIND       PRES   REMARKS
DOWNTOWN L.A.  SUNNY     68  53  58 MISG      29.81F
L.A. AIRPORT   MOSUNNY   66  55  67 W16       29.82F
SAN DIEGO      PTSUNNY   64  54  69 S12       29.89F
BURBANK        SUNNY     69  50  50 S12       29.79F
ONTARIO        MOSUNNY   72  46  39 SW17G24   29.77F
RIVERSIDE      SUNNY     73  45  36 W20G28    29.76F
PALM SPRINGS   SUNNY     85  34  16 SW31G49   29.54F
EL CENTRO NAS  MOSUNNY   90  33  13 SW33G45   29.63F
IMPERIAL       SUNNY     88  41  19 SW24G37   29.61F
BLYTHE         SUNNY     91  26   9 SW32G45   29.52F HAZE
NEEDLES        MOSUNNY   89  25  10 W16G25    29.46F
$$

NVZ020-UTZ003-310000-
SOUTHERN NEVADA-UTAH

CITY           SKY/WX    TMP DP  RH WIND       PRES   REMARKS
LAS VEGAS      CLOUDY    59  32  36 NW44G59   29.53R
SALT LAKE CITY LGT RAIN  50  42  74 N13       29.57F
$$

NMZ009-TXZ055-310000-
NEW MEXICO-WEST TEXAS

CITY           SKY/WX    TMP DP  RH WIND       PRES   REMARKS
ALBUQUERQUE    PTSUNNY   71  24  17 S15       29.74F
EL PASO        MOSUNNY   80  11   7 SW21G26   29.81F
$$


........................KEY........................
SKY/WX - SKY CONDITION/WEATHER
TMP    - TEMPERATURE IN FAHRENHEIT
DP     - DEW POINT IN FAHRENHEIT
RH     - RELATIVE HUMIDITY IN PERCENT
WIND   - DIRECTION AND SPEED IN MILES PER HOUR (MPH)
VRB    - VARIABLE WIND DIRECTION
PRES   - MEAN SEA LEVEL PRESSURE IN INCHES OF MERCURY
         F - FALLING PRESSURE   R - RISING PRESSURE
         S - STEADY PRESSURE
VSB    - VISIBILITY IN MILES
HX     - HEAT INDEX IN FAHRENHEIT
WCI    - WIND CHILL INDEX IN FAHRENHEIT
TC     - TEMPERATURE IN CELSIUS WHICH IS ALSO KNOWN AS
         TEMPERATURE IN CENTIGRADE
AFB    - AIR FORCE BASE
         LUKE AFB IS LUKE AIR FORCE BASE
         DAVIS-MONTHAN IS DAVIS-MONTHAN AIR FORCE BASE
NAS    - NAVAL AIR STATION
         EL CENTRO NAS IS EL CENTRO NAVAL AIR STATION
N/A    - NOT AVAILABLE





USA.gov is the U.S. government's official web portal to all federal, state and local government web resources and services.